Time,TemperatureF,DewpointF,PressureIn,WindDirection,WindDirectionDegrees,WindSpeedMPH,WindSpeedGustMPH,Humidity,HourlyPrecipIn,Conditions,Clouds,dailyrainin,SoftwareType,DateUTC
2013-06-17 01:00:00,50.0,-99.9,-100.00,North,-999,-999.0,-999.0,-999,-99.99,,,0.00,,2013-06-17 07:00:00,
2013-06-17 07:00:00,41.0,-99.9,-100.00,North,358,1.0,3.0,-999,-99.99,,,0.00,,2013-06-17 13:00:00,
2013-06-17 08:00:00,48.0,-99.9,-100.00,NW,324,1.0,3.0,-999,-99.99,,,0.00,,2013-06-17 14:00:00,
2013-06-17 09:00:00,57.0,-99.9,-100.00,NW,321,2.0,4.0,-999,-99.99,,,0.00,,2013-06-17 15:00:00,
2013-06-17 10:00:00,65.0,-99.9,-100.00,WNW,290,1.0,3.0,-999,-99.99,,,0.00,,2013-06-17 16:00:00,
2013-06-17 10:54:00,65.0,-99.9,-100.00,WNW,290,1.0,3.0,-999,-99.99,,,0.00,,2013-06-17 16:54:00,
2013-06-17 11:00:00,71.0,-99.9,-100.00,WNW,292,2.0,5.0,-999,-99.99,,,0.00,,2013-06-17 17:00:00,
2013-06-17 12:00:00,74.0,-99.9,-100.00,South,185,3.0,7.0,-999,-99.99,,,-99.99,,2013-06-17 18:00:00,
2013-06-17 12:53:00,74.0,-99.9,-100.00,South,185,3.0,7.0,-999,-99.99,,,-99.99,,2013-06-17 18:53:00,
2013-06-17 13:00:00,73.0,-99.9,-100.00,SSW,202,8.0,16.0,-999,-99.99,,,0.00,,2013-06-17 19:00:00,
2013-06-17 13:54:00,73.0,-99.9,-100.00,SSW,202,8.0,16.0,-999,-99.99,,,0.00,,2013-06-17 19:54:00,
2013-06-17 14:00:00,74.0,-99.9,-100.00,SSW,202,9.0,16.0,-999,-99.99,,,0.00,,2013-06-17 20:00:00,
2013-06-17 15:00:00,75.0,-99.9,-100.00,SW,215,9.0,15.0,-999,-99.99,,,0.00,,2013-06-17 21:00:00,
2013-06-17 15:43:00,75.0,-99.9,-100.00,SW,215,9.0,15.0,-999,-99.99,,,-99.99,,2013-06-17 21:43:00,
2013-06-17 15:52:00,75.0,-99.9,-100.00,SW,215,9.0,15.0,-999,-99.99,,,-99.99,,2013-06-17 21:52:00,
2013-06-17 16:00:00,76.0,-99.9,-100.00,SSW,206,9.0,15.0,-999,-99.99,,,0.00,,2013-06-17 22:00:00,
2013-06-17 16:54:00,76.0,-99.9,-100.00,SSW,206,9.0,15.0,-999,-99.99,,,0.00,,2013-06-17 22:54:00,
2013-06-17 17:00:00,77.0,-99.9,-100.00,South,182,8.0,15.0,-999,-99.99,,,0.00,,2013-06-17 23:00:00,
2013-06-17 17:53:00,77.0,-99.9,-100.00,South,182,8.0,15.0,-999,-99.99,,,0.00,,2013-06-17 23:53:00,
2013-06-17 18:00:00,76.0,-99.9,-100.00,SSE,162,7.0,15.0,-999,-99.99,,,0.00,,2013-06-18 00:00:00,
2013-06-17 19:00:00,77.0,-99.9,-100.00,South,179,6.0,11.0,-999,-99.99,,,0.00,,2013-06-18 01:00:00,
2013-06-17 20:00:00,76.0,-99.9,-100.00,SE,126,4.0,8.0,-999,-99.99,,,0.00,,2013-06-18 02:00:00,
2013-06-17 20:53:00,76.0,-99.9,-100.00,SE,126,4.0,8.0,-999,-99.99,,,0.00,,2013-06-18 02:53:00,
2013-06-17 21:00:00,72.0,-99.9,-100.00,SE,143,2.0,6.0,-999,-99.99,,,0.00,,2013-06-18 03:00:00,
2013-06-17 21:53:00,72.0,-99.9,-100.00,SE,143,2.0,6.0,-999,-99.99,,,0.00,,2013-06-18 03:53:00,
2013-06-17 22:00:00,60.0,-99.9,-100.00,NW,317,2.0,3.0,-999,-99.99,,,-99.99,,2013-06-18 04:00:00,